SCP
1 1 1 1 1 1 1 1 1 1 1 1 1 0 0 0 0 0 0 0 0 0 0 0 0 0 0 0 0 0 0 0 0 0 0 0 0 0 0 0 0 0 0
1 1 1 1 1 1 1 1 1 1 1 1 0 0 0 0 0 0 0 0 0 0 0 0 0 0 0 0 0 0 0 0 0 0 0 0 0 0 0 0 0 0 0
1 1 1 1 1 1 1 1 1 1 1 1 0 0 0 0 0 0 0 0 0 0 0 0 0 0 0 0 0 0 0 0 0 0 0 0 0 0 0 0 0 0 0
1 1 1 1 1 1 1 1 1 1 1 1 1 1 0 0 0 0 0 0 0 0 0 0 0 0 0 0 0 0 0 0 0 0 0 0 0 0 0 0 0 0 0
2 2 2 1 1 1 2 2 1 1 1 1 1 1 0 0 0 0 0 0 0 0 0 0 0 0 0 0 0 0 0 0 0 0 0 0 0 0 0 0 0 0 0
2 2 2 1 1 1 2 2 2 1 1 1 1 1 0 0 0 0 0 0 0 0 0 0 0 0 0 0 0 0 0 0 0 0 0 0 0 0 0 0 0 0 0
2 2 2 1 1 2 2 2 2 1 1 1 1 1 0 0 0 0 0 0 0 0 0 0 0 0 0 0 0 0 0 0 0 0 0 0 0 0 0 0 0 0 0
2 2 1 1 1 2 2 2 2 2 1 1 1 1 0 0 0 0 0 0 0 0 0 0 0 0 0 0 0 0 0 0 0 0 0 0 0 0 0 0 0 0 0
1 1 1 1 1 1 2 2 2 1 1 1 1 1 0 0 0 0 0 0 0 0 0 0 0 0 0 0 0 0 0 0 0 0 0 0 0 0 0 0 0 0 0
1 1 1 1 1 1 1 1 1 1 1 1 1 1 0 0 0 0 0 0 0 0 0 0 1 1 0 0 0 0 0 0 0 0 0 0 0 0 0 0 0 0 0
2 2 1 1 1 1 1 1 1 1 1 1 1 1 0 0 0 0 0 1 1 1 1 1 1 1 1 0 0 0 0 0 0 0 0 0 0 0 0 0 0 0 0
2 2 2 2 2 1 1 1 1 1 1 1 0 0 1 1 1 1 1 1 1 1 1 1 1 1 1 0 0 0 0 0 0 0 0 1 0 0 0 0 0 0 0
2 2 2 2 2 2 2 2 2 1 1 1 1 1 1 1 1 1 1 1 1 1 1 1 1 1 0 0 1 0 0 0 0 0 1 1 0 0 0 0 0 0 0
3 3 2 3 3 3 3 2 2 2 2 2 1 1 2 2 2 1 1 1 1 1 1 1 1 1 0 0 1 0 0 0 0 1 1 1 1 0 1 1 1 1 1
4 3 3 3 3 3 3 3 2 2 2 2 2 2 2 2 2 1 2 2 1 1 1 1 1 1 1 0 0 0 0 0 1 1 1 1 1 1 1 1 1 1 1
5 4 4 3 3 4 3 3 3 3 2 2 2 2 2 2 2 1 1 1 1 1 1 1 1 1 0 0 0 0 0 1 1 1 1 1 1 1 1 1 1 1 1
5 5 5 4 4 3 3 2 3 3 2 2 2 3 2 2 1 1 1 1 1 1 1 1 1 1 1 1 1 1 1 1 1 1 1 1 0 1 1 1 1 1 1
5 5 5 4 4 3 3 2 2 2 2 2 2 2 2 2 1 1 1 1 1 1 1 1 1 1 1 1 1 1 1 1 1 1 1 1 1 1 1 1 1 1 1
5 5 4 4 3 3 3 2 2 2 2 2 2 2 1 1 1 1 1 1 1 1 1 1 1 1 1 1 0 0 1 1 1 1 0 1 1 1 1 1 1 1 1
4 4 4 4 4 3 3 3 2 2 2 1 1 1 1 1 1 1 1 1 1 1 1 1 1 1 0 0 0 0 0 0 0 0 0 1 1 1 1 1 1 1 1
3 4 4 5 4 3 3 3 3 3 2 2 1 1 1 1 1 1 1 1 1 1 1 0 0 0 0 0 0 0 0 0 0 0 0 1 1 1 1 1 1 2 2
3 3 4 4 4 3 3 3 4 4 4 2 2 1 1 1 1 1 1 1 0 0 0 0 0 0 0 0 0 0 0 0 0 0 0 1 1 1 1 1 1 2 3
2 2 3 3 3 3 2 3 3 4 4 3 2 1 1 1 1 1 0 0 0 0 0 0 0 0 0 0 0 0 0 0 0 0 0 0 0 0 0 1 1 1 1
1 1 2 2 2 2 2 2 2 3 3 2 1 1 1 1 1 1 0 0 0 0 0 0 0 0 0 0 0 0 0 0 0 0 0 0 0 0 0 0 0 0 0
1 1 1 1 1 1 1 1 1 1 1 1 1 1 1 1 1 1 0 0 0 0 0 0 0 0 0 0 0 0 0 0 0 0 0 0 0 0 0 0 0 0 1
1 1 1 1 1 1 1 1 1 1 1 1 1 1 1 1 1 1 1 0 0 0 0 0 0 0 0 0 0 0 0 0 0 0 0 0 0 0 0 0 0 1 1
Wind_Speed
14 17 17 14 14 14 15 15 15 14 14 14 14 13 12 12 11 10 10 9 9 9 9 10 10 10 10 10 10 10 10 10 10 11 12 12 12 12 12 12 12 13 14
17 19 17 15 15 15 15 15 15 14 14 14 13 13 12 11 10 10 9 9 9 9 9 9 10 10 10 10 10 10 10 9 10 11 12 13 12 11 10 8 8 12 13
19 19 18 14 15 15 15 15 15 14 14 14 13 12 11 11 10 10 9 9 9 9 9 9 10 10 10 10 10 9 9 9 9 9 9 10 12 11 10 11 14 13 13
19 19 18 17 15 15 15 14 14 14 14 13 13 12 11 10 9 9 9 9 9 9 9 9 9 9 9 9 9 9 9 9 7 6 5 9 11 11 11 12 12 12 12
18 17 18 18 16 15 15 14 14 14 13 13 12 11 11 10 9 9 8 8 9 9 9 9 9 9 9 9 9 8 8 7 4 5 7 7 9 10 10 11 12 12 12
18 17 19 17 16 15 15 14 14 14 13 12 11 11 10 9 9 8 8 8 8 8 8 8 9 8 8 7 7 7 7 5 8 6 6 7 10 10 10 10 11 11 11
18 17 20 17 17 15 15 14 14 13 13 12 11 10 9 9 9 8 8 8 8 8 8 8 7 7 7 6 6 5 4 3 3 6 5 6 10 9 9 9 10 11 10
18 17 19 17 16 16 15 14 14 13 12 11 11 10 9 8 8 7 7 7 7 7 7 7 7 6 6 5 5 4 3 5 3 5 5 7 10 8 9 9 9 10 10
17 16 17 17 16 15 14 14 13 12 12 11 10 9 8 7 7 6 6 6 6 6 5 5 5 5 5 4 4 4 2 4 4 4 5 6 10 8 8 8 9 9 9
15 15 15 15 15 14 13 13 13 12 11 10 9 8 7 7 7 6 7 6 5 5 5 4 4 4 4 3 3 3 2 6 3 4 4 8 10 8 8 8 8 8 9
13 13 14 14 13 12 12 13 13 12 10 10 10 9 8 7 7 7 6 6 4 4 4 3 3 3 3 5 4 3 6 4 2 1 3 11 9 8 9 9 8 9 9
14 13 11 12 11 10 9 10 8 9 9 8 7 8 6 3 2 2 9 5 3 3 4 3 3 5 7 5 7 7 5 4 2 2 5 10 8 8 9 9 9 9 9
14 12 11 10 10 9 6 7 5 4 6 6 6 5 3 3 3 3 3 5 5 5 4 5 5 3 3 1 2 3 2 3 2 1 6 8 7 8 9 10 10 10 10
13 12 10 10 9 8 6 5 5 5 4 5 6 5 4 2 2 2 1 1 2 2 1 2 1 1 1 2 3 3 3 3 2 1 4 7 6 8 10 10 11 12 12
12 12 11 10 9 8 6 5 5 5 5 5 4 3 3 3 2 2 1 1 1 1 2 2 1 1 2 2 3 3 3 3 3 3 2 6 6 7 9 11 12 13 13
11 11 11 11 10 9 7 5 4 4 4 4 4 3 2 2 2 2 2 1 1 1 1 1 1 2 1 1 2 2 3 3 2 4 4 4 7 8 9 10 11 12 13
10 11 10 10 10 9 8 7 5 4 4 4 3 3 2 2 2 1 1 2 1 1 2 2 2 2 3 3 2 2 3 3 3 3 4 4 4 8 9 9 10 11 13
10 11 10 9 10 9 7 6 4 4 4 3 3 3 3 2 2 2 1 1 1 1 2 2 2 2 2 2 2 2 2 2 4 4 5 4 4 4 6 8 8 10 12
10 10 10 9 10 9 8 6 5 4 4 4 4 3 4 3 3 2 1 2 2 1 1 2 1 2 1 2 3 3 3 3 3 4 4 4 3 4 4 5 8 8 11
10 9 9 9 9 9 7 6 5 5 4 4 3 3 4 4 3 2 3 2 2 1 1 0 0 1 2 2 4 2 3 3 3 2 3 3 2 3 4 3 5 7 10
10 10 9 9 9 7 6 6 6 5 5 4 4 5 5 4 4 2 1 3 2 1 0 1 2 2 2 2 4 4 3 4 2 2 2 2 1 2 2 3 4 3 4
10 10 10 10 9 8 6 4 4 4 4 4 4 4 4 4 4 4 1 2 2 1 1 1 2 3 2 1 4 5 4 4 4 2 2 2 1 2 2 2 2 2 4
11 10 9 10 9 8 8 6 5 5 4 5 5 5 4 4 4 2 3 2 1 3 1 1 2 3 3 2 3 4 5 3 2 3 2 1 2 2 3 2 3 2 4
11 10 9 9 9 8 8 7 8 6 5 5 4 4 5 4 4 3 3 2 2 1 0 3 0 2 4 4 1 2 4 5 5 3 3 2 2 3 3 4 3 2 3
11 11 10 9 9 8 7 7 7 6 5 5 4 5 5 5 4 4 3 2 2 1 0 2 1 3 3 4 4 3 2 3 6 6 5 3 3 3 2 4 3 3 3
11 11 11 10 9 9 9 8 7 6 6 6 6 6 6 5 4 5 4 2 2 1 1 1 2 2 3 3 4 4 4 4 4 5 6 5 5 4 3 3 4 4 3
Wind_Direction
155 143 143 149 147 143 140 140 140 140 140 139 136 132 129 127 124 119 114 109 104 98 93 92 93 94 94 95 98 100 101 103 106 108 111 111 112 114 117 125 133 113 114
149 142 144 148 146 142 139 137 136 136 137 136 134 131 128 125 122 118 113 109 103 98 93 93 94 93 94 97 99 101 103 104 107 113 120 118 113 113 114 111 92 108 120
148 142 149 147 145 142 138 136 135 135 134 134 131 129 126 124 121 117 112 108 103 99 96 95 96 97 97 99 100 101 103 106 111 127 155 131 116 115 113 104 103 117 119
148 146 152 146 146 143 140 137 136 135 134 132 131 128 125 123 120 117 113 109 104 102 99 97 97 97 98 98 97 98 101 105 120 185 159 116 120 117 121 119 120 121 121
147 147 142 149 148 146 143 140 138 136 135 134 133 131 128 126 121 117 112 108 104 102 100 99 97 96 98 99 98 98 101 111 163 214 97 105 110 121 125 126 126 124 124
149 151 142 153 151 150 146 143 141 139 138 138 136 134 132 129 123 115 110 106 104 102 99 98 98 98 98 100 101 103 110 145 218 118 114 123 115 127 131 131 132 130 129
154 150 146 156 154 153 151 148 146 144 143 142 139 137 134 128 121 116 113 109 107 105 102 100 99 98 98 97 98 103 121 218 247 107 120 109 108 128 135 136 135 133 132
155 152 145 156 156 156 155 153 150 148 147 145 142 140 138 132 127 124 120 115 111 108 107 107 106 104 99 95 93 92 116 258 175 123 121 108 111 137 142 142 141 139 138
158 153 152 159 160 159 158 156 154 152 150 148 145 144 142 137 134 132 125 122 120 117 116 118 119 115 108 102 99 96 99 294 262 127 130 117 131 152 153 152 150 149 149
161 158 158 162 160 164 162 160 157 155 153 149 148 149 147 149 150 148 161 134 132 128 128 127 129 128 125 116 115 124 180 251 240 148 135 120 145 167 165 165 163 161 161
164 162 165 161 162 168 164 155 161 159 155 159 161 158 178 182 165 172 124 123 147 144 143 139 135 147 176 161 150 182 229 244 203 122 115 116 158 179 179 176 176 175 173
168 170 168 163 162 170 165 154 169 171 160 180 160 169 184 151 154 140 115 139 151 151 163 153 156 193 231 193 167 202 231 237 243 179 118 132 172 193 192 188 187 187 187
169 171 167 165 165 171 158 162 170 166 157 168 159 166 157 169 170 170 153 162 174 186 196 164 200 226 239 277 264 233 261 270 256 228 126 148 186 204 203 199 199 198 198
170 170 168 164 167 168 163 163 170 168 165 160 154 176 163 174 179 147 184 150 188 180 177 217 204 200 263 250 258 269 256 261 269 289 125 155 199 214 212 208 206 206 205
169 168 166 166 164 163 161 177 169 166 163 147 148 163 174 181 185 160 139 178 229 186 191 204 207 191 218 229 247 247 261 275 283 274 164 163 204 218 216 215 214 212 210
168 166 162 168 165 163 162 165 162 165 154 148 148 144 180 182 157 170 178 180 202 219 234 214 196 215 226 240 244 246 264 268 258 271 271 192 196 214 221 220 219 217 216
165 162 164 167 165 167 166 169 165 160 154 144 136 139 170 177 146 183 160 180 155 181 172 201 206 211 219 224 232 246 254 270 275 267 275 281 234 204 210 219 220 217 219
164 163 166 171 163 164 164 164 161 154 144 144 150 152 163 157 163 199 170 134 138 198 196 177 224 220 232 253 249 259 261 259 264 265 261 253 266 259 203 201 221 223 222
165 165 166 168 163 162 161 163 158 146 146 157 162 154 149 158 165 196 147 99 198 195 211 241 144 274 257 278 257 231 252 257 263 260 270 269 257 257 252 180 202 223 227
163 163 165 166 161 161 160 155 151 150 157 164 156 142 155 160 167 186 162 144 221 188 181 273 359 282 291 285 285 283 261 263 253 249 253 244 245 258 261 252 216 212 217
165 164 166 166 164 167 164 165 161 161 162 161 158 149 165 162 154 196 182 147 226 177 269 247 268 233 262 304 280 261 232 226 237 241 252 279 272 279 272 255 250 253 215
169 169 168 168 168 171 161 154 155 149 163 154 149 147 167 165 174 182 190 200 183 183 197 255 277 297 303 294 296 294 270 210 189 209 229 230 292 276 260 253 261 245 266
172 178 174 167 168 171 162 158 153 150 165 163 165 164 165 168 174 181 179 243 200 245 180 252 265 274 296 289 304 307 304 312 325 186 199 242 291 306 290 293 257 258 258
177 175 171 168 169 168 169 173 175 178 176 169 178 158 161 172 175 174 186 196 242 273 122 245 231 287 285 284 241 270 302 330 303 289 226 203 227 266 298 296 291 263 258
178 175 173 168 168 168 174 174 184 185 175 170 173 154 177 165 177 180 184 188 207 245 312 333 328 292 287 299 303 287 274 258 264 282 290 293 271 265 282 282 285 280 273
179 175 172 171 172 173 179 181 192 183 183 175 182 171 188 174 177 173 180 186 210 216 180 227 261 243 301 318 304 299 292 289 288 289 288 281 285 286 295 297 279 276 271